sat.trackr.live / text

‹ back to catalog

HULIANWANG DIGUI-79

NORAD 65311 · 2025-187G

PAYLOAD ACTIVE UNKNOWN

§ Identity

Operator
Country
PRC
Launch date
2025-08-25
Launch site
WSC
Launch vehicle
Mass (kg)
RCS (m²)

External: N2YO · Heavens-Above · Gunter

§ Orbital elements

Epoch: 2026-09-20T22:47:40.652448Z

Period
108.33 min
Inclination
50.0031°
Eccentricity
0.0000695
Mean motion
13.29322472 rev/d
Perigee alt
1,148.8 km
Apogee alt
1,149.8 km
Semi-major
7,527.5 km
B*
6.2022e-5
RAAN
222.6913°
Arg perigee
2.2025°
Mean anomaly
357.8850°
Rev number
5,243

§ Raw data

HULIANWANG DIGUI-791 65311U 25187G   26263.94977607 -.00000095  00000+0  62022-4 0  99972 65311  50.0031 222.6913 0000695   2.2025 357.8850 13.29322472 52438

JSON: /api/v1/satellites/65311 · /tle

For live sub-satellite position, see the globe view (requires WebGL).

§ Visibility from observer

Set your observer location to see the next 7 days of passes ≥ 10°. The values pass through the URL so the page stays shareable.

No JS? Fill the form by hand. The geolocation button needs JavaScript.